This is the latest recevied weather packets stored in our database for station/object KJ5SC. If no packets are shown the sender has not sent any weather packets the latest 10 day(s).
| Time | Temp. | Humidity | Pressure | Rain* | Wind** | Luminosity | Snow |
|---|---|---|---|---|---|---|---|
| 1787527034 | 36.67° C | 42% | 1016.2 hPa | 0 mm | - | 29 W/m² | - |
| 1787526730 | 36.67° C | 41% | 1016.2 hPa | 0 mm | - | 31 W/m² | - |
| 1787526426 | 37.22° C | 41% | 1016.3 hPa | 0 mm | - | 33 W/m² | - |
| 1787526123 | 37.22° C | 40% | 1016.3 hPa | 0 mm | - | 36 W/m² | - |
| 1787525819 | 37.22° C | 39% | 1016.2 hPa | 0 mm | - | 34 W/m² | - |
| 1787525518 | 37.22° C | 40% | 1016.2 hPa | 0 mm | - | 58 W/m² | - |
| 1787525213 | 37.22° C | 39% | 1016.2 hPa | 0 mm | - | 36 W/m² | - |
| 1787524909 | 37.78° C | 38% | 1016.2 hPa | 0 mm | - | 85 W/m² | - |
| 1787524605 | 37.22° C | 40% | 1016.3 hPa | 0 mm | - | 53 W/m² | - |
| 1787524300 | 37.22° C | 39% | 1016.2 hPa | 0 mm | - | 52 W/m² | - |
| 1787523996 | 37.78° C | 38% | 1016.4 hPa | 0 mm | - | 58 W/m² | - |
| 1787523691 | 37.78° C | 40% | 1016.4 hPa | 0 mm | - | 39 W/m² | - |
| 1787523390 | 37.78° C | 39% | 1016.7 hPa | 0 mm | - | 40 W/m² | - |
| 1787523086 | 37.78° C | 38% | 1016.6 hPa | 0 mm | - | 41 W/m² | - |
| 1787522782 | 37.78° C | 39% | 1016.7 hPa | 0 mm | - | 44 W/m² | - |
| 1787522478 | 37.78° C | 40% | 1016.5 hPa | 0 mm | - | 44 W/m² | - |
| 1787522173 | 37.78° C | 39% | 1016.6 hPa | 0 mm | - | 45 W/m² | - |
| 1787521872 | 37.78° C | 38% | 1016.5 hPa | 0 mm | - | 90 W/m² | - |
| 1787521572 | 37.78° C | 39% | 1016.8 hPa | 0 mm | - | 72 W/m² | - |
| 1787521266 | 37.78° C | 39% | 1016.9 hPa | 0 mm | - | 49 W/m² | - |
| 1787520961 | 37.78° C | 39% | 1017 hPa | 0 mm | - | 49 W/m² | - |
| 1787520657 | 37.78° C | 37% | 1017 hPa | 0 mm | - | 50 W/m² | - |
| 1787520352 | 37.78° C | 36% | 1017 hPa | 0 mm | - | 60 W/m² | - |
| 1787520048 | 37.78° C | 36% | 1016.9 hPa | 0 mm | - | 133 W/m² | - |
| 1787519743 | 37.78° C | 38% | 1017.1 hPa | 0 mm | - | 63 W/m² | - |
* Rain latest hour (hover to see other rain measurements)
** Current wind speed in m/s (hover to see current wind gust speed)